This demonstration page uses our WeatherBlox Daily Observations layout. Learn more.

Left ArrowRight Arrow

Hourly Observations for October 8, 2015

Temp ( °F °C ) Dew Point ( °F °C ) Humidity (%) Winds ( mph kmh ) Pressure ( in mb ) Visibility ( mi km ) Precip ( " mm )
12:53 am 00:53 Clear 54 12.2 53 11.7 97 97 Calm 30.11 1020 10 16 0.00 0.00
1:53 am 01:53 Clear 54 12.2 52 11.1 93 93 Calm 30.12 1020 9 14 0.00 0.00
2:53 am 02:53 Clear 53 11.7 51 10.6 93 93 Calm 30.11 1020 10 16 0.00 0.00
3:53 am 03:53 Clear 52 11.1 51 10.6 97 97 Calm 30.11 1020 8 13 0.00 0.00
4:53 am 04:53 Clear 52 11.1 51 10.6 97 97 Calm 30.10 1019 8 13 0.00 0.00
5:53 am 05:53 Clear with Mist and Fog 51 10.6 50 10 96 96 Calm 30.10 1019 6 10 0.00 0.00
6:53 am 06:53 Mostly Cloudy 51 10.6 50 10 96 96 Calm 30.11 1020 9 14 0.00 0.00
7:53 am 07:53 Partly Cloudy with Mist and Fog 52 11.1 50 10 93 93 Calm 30.11 1020 5 8 0.00 0.00
8:53 am 08:53 Mostly Cloudy 57 13.9 54 12.2 90 90 Calm 30.11 1020 8 13 0.00 0.00
9:53 am 09:53 Mostly Cloudy 65 18.3 58 14.4 78 78 Calm 30.12 1020 8 13 0.00 0.00
10:53 am 10:53 Mostly Sunny 70 21.1 60 15.6 71 71 Calm 30.11 1020 10 16 0.00 0.00
11:53 am 11:53 Sunny 75 23.9 61 16.1 62 62 VRB 3 6 30.09 1019 10 16 0.00 0.00
12:53 pm 12:53 Mostly Cloudy 80 26.7 60 15.6 51 51 VRB 7 11 30.08 1019 10 16 0.00 0.00
1:53 pm 13:53 Partly Cloudy 81 27.2 59 15 47 47 SW 8 13 30.06 1018 10 16 0.00 0.00
2:53 pm 14:53 Sunny 80 26.7 59 15 49 49 VRB 7 11 30.03 1017 10 16 0.00 0.00
3:53 pm 15:53 Partly Cloudy 79 26.1 59 15 50 50 VRB 7 11 30.01 1016 10 16 0.00 0.00
4:53 pm 16:53 Sunny 78 25.6 60 15.6 54 54 SW 7 11 30.01 1016 10 16 0.00 0.00
5:53 pm 17:53 Sunny 78 25.6 60 15.6 54 54 SSW 5 7 30.00 1016 10 16 0.00 0.00
6:53 pm 18:53 Mostly Sunny 71 21.7 62 16.7 73 73 Calm 29.99 1016 10 16 0.00 0.00
7:53 pm 19:53 Clear 67 19.4 61 16.1 81 81 Calm 29.99 1016 10 16 0.00 0.00
8:53 pm 20:53 Clear 64 17.8 61 16.1 90 90 Calm 29.99 1016 10 16 0.00 0.00
9:53 pm 21:53 Clear 63 17.2 60 15.6 90 90 Calm 29.98 1015 10 16 0.00 0.00
10:53 pm 22:53 Clear 61 16.1 59 15 93 93 Calm 29.98 1015 9 14 0.00 0.00
11:53 pm 23:53 Clear 60 15.6 58 14.4 93 93 Calm 29.98 1015 10 16 0.00 0.00

Powered by AerisWeather